User: anonymous   Login
Location: Vancouver
(49.2500°N, 123.1330°W)
Time: 16:09:55
(UTC-07:00)
Language:

H-2A R/B - Orbit

View from above orbital plane
View from above orbital plane
View from above satellite
View from above satellite

Ground track
Ground track

The orbit data is extracted from the following two-line orbital elements,

1 27601U 02056E   16121.81188529  .00000051  00000-0  33609-4 0  9993
2 27601  98.4205 196.7362 0073383  77.7111  31.4700 14.31707826698803
Epoch (UTC): 30 April 2016 19:29:06
Eccentricity: 0.0073383
inclination: 98.4205°
perigee height: 733 km
apogee height: 838 km
right ascension of ascending node: 196.7362°
argument of perigee: 77.7111°
revolutions per day: 14.31707826
mean anomaly at epoch: 31.4700°
orbit number at epoch: 69880

The dashed part of the orbit path shows where the satellite is in the earth's shadow,  

DLR